[Iaude] MPEC R98: 2023 RV2 [a=2.13,e=0.51,i=7.1,H=23.0]

mpec at marsden.cfa.harvard.edu mpec at marsden.cfa.harvard.edu
Sun Sep 10 09:11:51 EDT 2023


M.P.E.C. 2023-R98                            Issued 2023 September 10, 13:10 UT

     The Minor Planet Electronic Circulars contain information on unusual
         minor planets, routine data on comets and natural satellites,
         and occasional editorial announcements.  They are published
    on behalf of Division F of the International Astronomical Union by the
          Minor Planet Center, Smithsonian Astrophysical Observatory,
                          Cambridge, MA 02138, U.S.A.
			  
             Prepared using the Tamkin Foundation Computer Network

                              MPC at CFA.HARVARD.EDU
            URL https://www.minorplanetcenter.net/    ISSN 1523-6714

                                    2023 RV2                                    


Observations:
     K23R02V* C2023 09 07.46038001 44 48.825+12 18 10.28         21.33wXER098F51
     K23R02V  C2023 09 07.47136301 44 47.501+12 18 33.22         21.40wXER098F51
     K23R02V  C2023 09 07.49345601 44 44.795+12 19 19.08         21.67wXER098F51
     K23R02V  C2023 09 07.55664101 44 37.012+12 21 29.31         21.69GVER098F52
     K23R02V  C2023 09 07.55744901 44 36.927+12 21 30.66         21.73GVER098F52
     K23R02V 1C2023 09 08.10741 01 43 38.99 +12 39 37.7          21.5 VXER098033
     K23R02V 1C2023 09 08.11099 01 43 38.56 +12 39 44.9          21.1 VXER098033
     K23R02V 1C2023 09 08.11457 01 43 38.13 +12 39 51.9          21.0 VXER098033
     K23R02V KC2023 09 08.35814201 43 13.58 +12 48 03.3          21.1 GXER098858
     K23R02V KC2023 09 08.36608201 43 12.61 +12 48 19.0                XER098858
     K23R02V KC2023 09 08.37393401 43 11.70 +12 48 34.2          20.5 GXER098858
     K23R02V 1C2023 09 09.09931 01 41 53.91 +13 11 38.0          20.2 VXER098033
     K23R02V 1C2023 09 09.10220 01 41 53.54 +13 11 43.5          20.4 VXER098033
     K23R02V 1C2023 09 09.10509 01 41 53.22 +13 11 48.8          20.0 VXER098033
     K23R02V 1C2023 09 09.10810 01 41 52.87 +13 11 54.8          20.4 VXER098033
     K23R02V 1C2023 09 10.13561 01 40 02.48 +13 43 16.9          21.6 VXER098033
     K23R02V 1C2023 09 10.13722 01 40 02.33 +13 43 19.6          21.2 VXER098033
     K23R02V 1C2023 09 10.13884 01 40 02.10 +13 43 22.3          21.1 VXER098033
     K23R02V 1C2023 09 10.14057 01 40 01.86 +13 43 25.5          21.5 VXER098033
     K23R02V  C2023 09 10.45186701 39 30.561+13 52 55.50         21.55wXER098F51
     K23R02V  C2023 09 10.46221301 39 29.281+13 53 13.48         21.52wXER098F51
     K23R02V  C2023 09 10.48381301 39 26.605+13 53 52.00         21.54wXER098F51

Observer details:
033 Karl Schwarzschild Observatory, Tautenburg.  Observers S. Melnikov, C.
    Hoegner, F. Ludwig, M. Hartmann, B. Stecklum.  Measurer B. Stecklum.
    1.34-m f/3 Schmidt + CCD.
858 Tebbutt Observatory, Edgewood.  Observer F. B. Zoltowski.  0.51-m f/8.1
    Schmidt-Cassegrain + CCD.
F51 Pan-STARRS 1, Haleakala.  Observers J. Bulger, T. Lowe, P. Minguez, A.
    Schultz, I. Smith.  Measurers K. Chambers, T. de Boer, J. Bulger, J.
    Fairlamb, H. Gao, M. Huber, C.-C. Lin, T. Lowe, E. Magnier, P. Minguez, Y.
    Ramanjooloo, A. Schultz, I. Smith, R. Wainscoat, R. Weryk.  1.8-m Ritchey-
    Chretien + CCD.
F52 Pan-STARRS 2, Haleakala.  Observers J. Bulger, K. Chambers, T. Dukes, T.
    Lowe, P. Minguez, A. Schultz, I. Smith.  Measurers S. Chastel, J.
    Fairlamb, M. Huber, Y. Ramanjooloo, R. Wainscoat, R. Weryk.  1.8-m
    Ritchey-Chretien + CCD.

Orbital elements:
2023 RV2                                                 Earth MOID = 0.0705 AU
Epoch 2023 Sept. 13.0 TT = JDT 2460200.5                Veres                   
M  14.91487              (2000.0)            P               Q                  
n   0.31780908     Peri.  317.76825     +0.60064710     +0.79916642             
a   2.1266296      Node   349.07708     -0.69624215     +0.50833570             
e   0.5102764      Incl.    7.14891     -0.39302663     +0.32082369             
P   3.10           H   23.01          G   0.15           U   9                  
Residuals in seconds of arc
230907 F51  0.0   0.1-    230908 858  0.3-  0.1-    230910 033  0.7+  0.2+
230907 F51  0.1+  0.1-    230908 858  0.4-  0.0     230910 033  0.2+  0.0
230907 F51  0.1-  0.1-    230908 858  0.3+  0.3-    230910 033  0.3-  0.2+
230907 F52  0.1-  0.2+    230909 033  0.1+  0.0     230910 F51  0.1-  0.1+
230907 F52  0.1+  0.1-    230909 033  0.3-  0.1+    230910 F51  0.1-  0.3-
230908 033  0.2+  0.1+    230909 033  0.1+  0.0     230910 F51  0.1+  0.0
230908 033  0.1+  0.2+    230909 033  0.2+  0.3+
230908 033  0.0   0.1+    230910 033  0.1+  0.3+

Ephemeris:
2023 RV2                 a,e,i = 2.13, 0.51, 7                   q = 1.0415
Date    TT    R. A. (2000) Decl.     Delta      r    Elong.  Phase     V
2023 08 11    02 23 36.8 -18 30 27   0.1143  1.0548   108.1    66.0    20.7
...
2023 08 26    02 04 38.1 +02 33 44   0.1500  1.0972   121.8    51.5    21.0
...
2023 09 03    01 52 20.4 +09 26 54   0.1745  1.1300   130.5    42.8    21.1
...
2023 09 09    01 42 04.9 +13 08 56   0.1951  1.1584   137.3    36.2    21.3
2023 09 10    01 40 17.9 +13 39 40   0.1988  1.1635   138.4    35.1    21.3
2023 09 11    01 38 30.0 +14 08 44   0.2025  1.1686   139.6    34.0    21.3
...
2023 09 17    01 27 30.3 +16 31 05   0.2263  1.2007   146.6    27.5    21.4
...
2023 09 25    01 13 06.0 +18 28 05   0.2629  1.2471   155.5    19.5    21.6
...
2023 10 10    00 51 03.7 +19 33 52   0.3502  1.3420   166.6     9.9    22.0

M. P. C. Staff               (C) Copyright 2023 MPC           M.P.E.C. 2023-R98





More information about the Iaude mailing list